Regional Weather Roundup
Issued by NWS Albany, NY

Home | Current Version | Previous Version | Text Only | Print | Product List | Glossary On
Versions: 1 2 3 4 5 6 7 8 9 10 11 12 13 14 15 16 17 18 19 20 21 22 23 24 25 26 27 28 29 30 31 32 33 34 35 36 37 38 39 40 41 42 43 44 45 46 47 48 49 50
000
ASUS41 KALY 250010
RWRALY

NEW YORK STATE HOURLY WEATHER ROUNDUP
NATIONAL WEATHER SERVICE ALBANY NY
800 PM EDT FRI APR 24 2015

NOTE: "FAIR" INDICATES FEW OR NO CLOUDS BELOW 12,000 FEET WITH NO
SIGNIFICANT WEATHER AND/OR NO OBSTRUCTIONS TO VISIBILITY.

NYZ032-033-038>043-046>054-057>066-NYZ062>081-250100-
EAST


CITY           SKY/WX    TMP DP  RH WIND       PRES   REMARKS
ALBANY         CLOUDY    39  18  42 NW15      29.90R WCI  31
GLENS FALLS    CLOUDY    39  20  46 W7        29.87R WCI  34
POUGHKEEPSIE   CLOUDY    40  21  46 NW9G17    29.91R WCI  34
NEWBURGH       MOCLDY    37  23  56 NW15G24   29.92R WCI  28
MONTGOMERY     CLOUDY    39  22  50 N8        29.91R WCI  33
WHITE PLAINS   PTCLDY    39  19  44 NW17G25   29.87R WCI  30
ISLIP          PTCLDY    42  22  44 NW25G35   29.85R
NEW YORK CITY  PTCLDY    44  21  40 NW18G32   29.89R
CENTRAL PARK   CLEAR     44  19  36 VRB6      29.92R
$$

NYZ005>009-017-018-044>046-055-056-250100-
CENTRAL


CITY           SKY/WX    TMP DP  RH WIND       PRES   REMARKS
FULTON         CLEAR     36  22  56 W14       29.96R WCI  27
SYRACUSE       PTCLDY    36  21  54 W10       29.95S WCI  28
ROME           CLOUDY    36  21  54 W9        29.95R WCI  29
ELMIRA         MOCLDY    40  20  44 NW12G22   29.95R WCI  33
BINGHAMTON     CLOUDY    32  21  64 NW7       29.91R WCI  26
MONTICELLO     PTCLDY    32  21  64 NW12      29.90R WCI  23
$$

NYZ026>034-041>043-250100-
NORTH


CITY           SKY/WX    TMP DP  RH WIND       PRES   REMARKS
WATERTOWN      CLOUDY    38  27  64 SW12G20   29.91R WCI  30
FORT DRUM      NOT AVBL
MASSENA        CLOUDY    38  21  50 W10       29.90R WCI  31
SARANAC LAKE   CLOUDY    31  19  61 VRB6      29.81R WCI  25
PLATTSBURGH    CLOUDY    38  20  48 NW7G17    29.85R WCI  33
$$

NYZ001>004-010>016-019>021-250100-
WEST


CITY           SKY/WX    TMP DP  RH WIND       PRES   REMARKS
NIAGARA FALLS  CLEAR     39  21  48 W14       29.99S WCI  31
BUFFALO        PTCLDY    40  20  44 NW10      30.00R WCI  33
DUNKIRK        CLEAR     38  24  57 W10G18    30.03R WCI  31
JAMESTOWN      CLEAR     36  18  48 NW8       29.99S WCI  29
WELLSVILLE     PTCLDY    35  18  49 NW14      29.95R WCI  26
ROCHESTER      MOCLDY    40  21  46 NW12      29.98R WCI  33
PENN YAN       CLOUDY    39  22  50 W9        29.96R WCI  33
$$

             KEY
       WCI = WIND CHILL INDEX
       VSB = VISIBILITY
       HX  = HEAT INDEX
$$


USA.gov is the U.S. government's official web portal to all federal, state and local government web resources and services.